Location: Maiden
(35.5760°N, 81.2120°W)
Time: 04:59:27
(UTC-05:00)

ISS - Visible Passes

Search period start: 17 February 2019 00:00
Search period end: 27 February 2019 00:00
Orbit: 403 x 411 km, 51.6° (Epoch: 17 February)

Date Brightness Start Highest point End Pass type
(mag) Time Alt. Az. Time Alt. Az. Time Alt. Az.
20 Feb -0.4 06:06:07 10° SE 06:06:52 11° SE 06:07:36 10° ESE visible
22 Feb -1.9 05:57:17 10° SSW 06:00:10 29° SE 06:03:04 10° ENE visible
23 Feb -1.0 05:07:34 12° SSE 05:08:51 15° SE 05:10:46 10° E visible
24 Feb -3.9 05:51:46 24° SW 05:53:34 88° WNW 05:56:51 10° NE visible
25 Feb -2.1 05:02:57 33° E 05:02:57 33° E 05:05:14 10° ENE visible
26 Feb -2.9 05:46:40 30° NW 05:47:07 32° NW 05:50:06 10° NNE visible
